Regional Weather Roundup
Issued by NWS

Home | Current Version | Previous Version | Graphics & Text | Print | Product List | Glossary On
Versions: 1 2 3 4 5 6 7 8 9 10 11 12 13 14 15 16 17 18 19 20 21 22 23 24 25 26 27 28 29 30 31 32 33 34 35 36 37 38 39 40 41 42 43 44 45 46 47 48 49 50
000
ASUS45 KBOU 070710
RWRCO

WEATHER ROUNDUP FOR COLORADO
NATIONAL WEATHER SERVICE DENVER/BOULDER CO
100 AM MDT TUE JUL 07 2015

NOTE: "FAIR" INDICATES FEW OR NO CLOUDS BELOW 12000 FEET WITH NO
SIGNIFICANT WEATHER AND/OR OBSTRUCTIONS TO VISIBILITY.

COZ001>005-013-030-031-070800-
...NORTHWEST COLORADO...

CITY           SKY/WX    TMP DP  RH WIND       PRES   REMARKS
CRAIG          NOT AVBL
HAYDEN         CLOUDY    55  50  82 E3        30.29F
MEEKER         CLOUDY    60  51  72 CALM      30.26S
MOUNT WERNER   NOT AVBL
STEAMBOAT SPGS CLOUDY    52  51  97 N3        30.32R
WALDEN         CLOUDY    54  50  87 NE3       30.33S
$$

COZ006>008-011-070800-
...WEST CENTRAL VALLEYS...

CITY           SKY/WX    TMP DP  RH WIND       PRES   REMARKS
GRAND JUNCTION CLOUDY    66  55  67 NW3       30.10S
MONTROSE       PTCLDY    65  48  54 S9        30.18F
EAGLE          CLOUDY    61  55  82 CALM      30.26S
RIFLE          CLOUDY    63  57  81 S7        30.19S
DELTA          PTCLDY    68  52  56 N5        30.13S
NUCLA          PTCLDY    61  50  67 E9        30.22S
$$

COZ017>023-064>068-070800-
...SOUTHWEST COLORADO...

CITY           SKY/WX    TMP DP  RH WIND       PRES   REMARKS
DURANGO        MOCLDY    61  55  81 NE3       30.24S
CORTEZ         CLEAR     61  51  70 NE5       30.17F
PAGOSA SPRINGS MOCLDY    59  55  86 CALM      30.33R
TELLURIDE      CLEAR     53  46  77 S5        30.40F
WOLF CREEK PAS NOT AVBL
$$

COZ009-010-012-014-032>034-037-058>063-070800-
...CENTRAL COLORADO...

CITY           SKY/WX    TMP DP  RH WIND       PRES   REMARKS
ASPEN          MOCLDY    56  47  71 N3        30.31R
BUENA VISTA    CLOUDY    54  49  86 SE7       30.40S
COPPER MTN     CLOUDY    45  41  87 S15G21    30.59F HAZE
BERTHOUD PASS  LGT RAIN  36  28  75 SE12      30.63F VSB 1/2
COTTONWOOD PAS NOT AVBL
GUNNISON       PTCLDY    55  45  67 N7        30.34S
KREMMLING      CLOUDY    55  50  82 SE3       30.31S
LEADVILLE      CLOUDY    46  46 100 SW5       30.46F
MONARCH PASS   FOG       41  39  93 NE15      30.69S VSB<1/4
SALIDA         CLOUDY    56  53  89 CALM      30.44F
SUNLIGHT       CLOUDY    48  45  87 NW9       30.53F
WILKERSON PASS FOG       43  41  93 SW6       30.59F VSB 1/2
$$

COZ069>075-070800-
...SAN LUIS VALLEY/SANGRE DE CRISTO MOUNTAINS...

CITY           SKY/WX    TMP DP  RH WIND       PRES   REMARKS
ALAMOSA        CLOUDY    55  52  89 S3        30.33S
LA VETA PASS   LGT RAIN  43  41  93 MISG      30.50S VSB 1/4
SAGUACHE       PTCLDY    52  50  93 CALM      30.38R
$$

COZ035-036-038>040-070800-
...NORTHERN COLORADO FRONT RANGE...

CITY           SKY/WX    TMP DP  RH WIND       PRES   REMARKS
DENVER INTL AP CLOUDY    59  52  77 SE10      30.27F HAZE
DMNS CITY PARK   N/A     60  54  82 E12       30.27F
AURORA         MOCLDY    59  54  84 SE8       30.30F
FRONT RANGE AP NOT AVBL
ERIE MUNI ARPT LGT RAIN  60  58  94 SE5       30.28S
BOULDER MUN AP HVY RAIN  59  59 100 CALM      30.28F
CENTENNIAL     CLOUDY    58  54  86 E9        30.30F FOG
BROOMFIELD     DRIZZLE   57  57 100 E7        30.30F
FORT COLLINS   CLOUDY    59  57  94 S3        30.29S
LONGMONT       RAIN      62  59  91 SW6       30.29F
$$

COZ041-046-047-076>085-087-088-070800-
...PIKES PEAK/PALMER DIVIDE AND SOUTHERN FOOTHILLS...

CITY           SKY/WX    TMP DP  RH WIND       PRES   REMARKS
COLO. SPRINGS  CLOUDY    57  55  93 S3        30.35S FOG
A. F. ACADEMY  CLOUDY    55  55 100 S8        30.35S FOG
ELLICOTT       CLOUDY   N/A N/A N/A SE8       30.33S HAZE
FALCON         CLOUDY    54  53  98 SE5       30.38S FOG
FORT CARSON    CLOUDY    57  56  95 W5        30.32F
LIMON          CLOUDY    57  51  80 E6        30.31S HAZE
MONUMENT HILL  CLOUDY    52  50  93 MISG      30.37F FOG
TRINIDAD       CLOUDY    61  55  81 NE8       30.30S
$$

COZ042>045-048>051-090-091-070800-
...NORTHEAST COLORADO...

CITY           SKY/WX    TMP DP  RH WIND       PRES   REMARKS
GREELEY ARPT   CLOUDY    63  54  72 E7        30.27F
AKRON          CLOUDY    61  52  72 E10       30.27F HAZE
BURLINGTON     CLOUDY    62  53  72 E7        30.27R HAZE
WRAY           MOCLDY    64  52  64 E6        30.25S
STERLING       CLOUDY    63  54  72 CALM        N/A  HAZE
HOLYOKE        MOCLDY    61  54  77 CALM      30.24F
FORT MORGAN    CLOUDY    61  52  71 E5        30.27F
$$

COZ086-089-092>099-070800-
...SOUTHEAST COLORADO...

CITY           SKY/WX    TMP DP  RH WIND       PRES   REMARKS
PUEBLO         CLOUDY    66  55  67 E8        30.27S HAZE
LA JUNTA       CLOUDY    66  53  63 E10       30.24F HAZE
LAMAR          CLOUDY    67  51  56 E12       30.21S HAZE
SPRINGFIELD      N/A     63  52  67 NE13      30.23S
$$



USA.gov is the U.S. government's official web portal to all federal, state and local government web resources and services.